KB2AHZ Weather Reports


time (UTC)temp
C
wind
direction
speed
KPH
gust
KPH
rain 1hr
cm
rain 24hr
cm
rain mn
cm
humidity
%
barometer
mb
20260508010134 11 140 1.6 3.2 0.00 0.86 0.86 99 1012.5
20260508005631 11 198 0.0 3.2 0.00 0.86 0.86 99 1012.7
20260508005127 11 200 0.0 3.2 0.00 0.86 0.86 99 1012.2
20260508004622 11 126 3.2 4.8 0.00 0.86 0.86 99 1012.3
20260508004119 11 243 0.0 3.2 0.00 0.86 0.86 99 1012.3
20260508003616 11 225 3.2 4.8 0.00 0.86 0.86 99 1012.2
20260508003114 11 85 0.0 3.2 0.00 0.86 0.86 99 1011.9
20260508002610 11 108 1.6 4.8 0.00 0.86 0.86 99 1011.6
20260508002108 11 282 0.0 4.8 0.00 0.86 0.86 99 1011.7
20260508001603 11 82 3.2 4.8 0.00 0.86 0.86 99 1011.6
20260508001059 11 74 0.0 3.2 0.00 0.86 0.86 99 1012.1
20260508000555 11 178 0.0 4.8 0.00 0.86 0.86 99 1011.6
20260508000053 11 107 0.0 4.8 0.00 0.86 0.86 99 1011.8
20260507235549 11 68 3.2 3.2 0.00 0.86 0.86 99 1011.8
20260507235047 11 64 0.0 3.2 0.00 0.86 0.86 99 1011.5
20260507234543 11 85 0.0 1.6 0.00 0.86 0.86 99 1011.7
20260507234039 11 265 0.0 3.2 0.00 0.86 0.86 99 1011.5
20260507233536 11 120 3.2 6.4 0.00 0.86 0.86 99 1011.4
20260507233035 11 45 0.0 3.2 0.00 0.86 0.86 99 1011.5
20260507232531 11 192 3.2 4.8 0.00 0.86 0.86 99 1011.6
20260507232028 11 133 1.6 3.2 0.00 0.86 0.86 99 1011.7
20260507231524 11 63 0.0 3.2 0.00 0.86 0.86 99 1011.6
20260507231022 11 101 0.0 3.2 0.00 0.86 0.86 99 1011.7
20260507230519 11 210 0.0 3.2 0.00 0.86 0.86 99 1011.6
20260507230015 11 227 0.0 4.8 0.00 0.86 0.86 99 1011.5
20260507225510 11 136 3.2 4.8 0.00 0.86 0.86 99 1011.3
20260507225007 11 20 0.0 4.8 0.00 0.86 0.86 99 1011.4
20260507224503 11 193 3.2 4.8 0.00 0.86 0.86 99 1011.3
20260507223959 12 144 0.0 4.8 0.00 0.86 0.86 99 1011.2
20260507223455 12 186 3.2 4.8 0.00 0.86 0.86 99 1011.0
20260507222953 12 190 3.2 3.2 0.00 0.86 0.86 99 1011.0
20260507222449 12 175 3.2 3.2 0.00 0.86 0.86 99 1011.1
20260507221946 12 85 0.0 4.8 0.00 0.86 0.86 99 1011.2
20260507221443 12 92 0.0 4.8 0.00 0.86 0.86 99 1011.3
20260507220939 12 158 1.6 4.8 0.00 0.86 0.86 99 1011.0
20260507220437 11 70 3.2 8.0 0.00 0.86 0.86 99 1011.0
20260507215933 11 171 0.0 8.0 0.05 0.86 0.86 99 1010.7
20260507215430 12 97 0.0 6.4 0.05 0.86 0.86 99 1010.9
20260507214927 12 46 0.0 4.8 0.00 0.86 0.86 99 1011.3
20260507214425 12 111 1.6 6.4 0.00 0.86 0.86 99 1011.4
20260507213920 12 356 0.0 4.8 0.00 0.86 0.86 99 1011.0
20260507213417 12 133 3.2 6.4 0.00 0.86 0.86 99 1010.5
20260507212914 12 146 1.6 4.8 0.00 0.86 0.86 99 1011.1
20260507212409 12 103 8.0 16.1 0.00 0.86 0.86 99 1010.9
20260507211906 12 153 6.4 8.0 0.00 0.86 0.86 99 1011.0
20260507211403 12 150 3.2 9.7 0.00 0.86 0.86 99 1010.9
20260507210900 12 170 1.6 4.8 0.00 0.86 0.86 99 1011.1
20260507210357 12 147 1.6 6.4 0.00 0.86 0.86 99 1011.1
20260507205853 12 143 1.6 6.4 0.00 0.86 0.86 99 1011.3
20260507205350 12 127 3.2 4.8 0.00 0.86 0.86 99 1011.1
20260507204846 12 143 0.0 3.2 0.00 0.86 0.86 99 1010.9
20260507204343 12 90 1.6 4.8 0.00 0.86 0.86 99 1011.2
20260507203841 12 121 3.2 11.3 0.00 0.86 0.86 99 1011.0
20260507203339 12 120 3.2 8.0 0.00 0.86 0.86 99 1011.2
20260507202835 12 133 8.0 9.7 0.13 0.86 0.86 99 1011.3
20260507202332 11 147 4.8 6.4 0.13 0.86 0.86 99 1011.4
20260507201827 11 187 4.8 8.0 0.00 0.84 0.84 99 1011.6
20260507201323 12 118 3.2 6.4 0.00 0.84 0.84 99 1011.3
20260507200819 12 133 3.2 6.4 0.00 0.84 0.84 99 1011.2
20260507200315 12 82 4.8 6.4 0.00 0.84 0.84 99 1011.4
20260507195811 12 168 6.4 8.0 0.05 0.84 0.84 99 1011.2
20260507195309 11 119 4.8 8.0 0.66 0.84 0.84 99 1011.3
20260507194806 11 111 4.8 8.0 0.66 0.84 0.84 99 1011.5
20260507194302 11 113 3.2 6.4 0.00 0.71 0.71 99 1011.4
20260507193759 11 137 0.0 8.0 0.00 0.71 0.71 99 1011.3
20260507193256 11 50 4.8 14.5 0.00 0.71 0.71 99 1011.3
20260507192752 12 41 8.0 11.3 0.00 0.71 0.71 99 1011.2
20260507192249 11 142 3.2 12.9 0.00 0.71 0.71 99 1011.5
20260507191745 12 101 3.2 6.4 0.00 0.71 0.71 99 1011.3
20260507191242 11 81 3.2 8.0 0.00 0.71 0.71 99 1011.3
20260507190738 11 83 6.4 22.5 0.00 0.71 0.71 99 1011.3
20260507190237 11 138 6.4 22.5 0.00 0.71 0.71 99 1011.0
20260507185735 12 106 0.0 12.9 0.00 0.71 0.71 99 1011.1
20260507185232 12 127 6.4 12.9 0.00 0.71 0.71 99 1011.2
20260507184729 12 106 4.8 11.3 0.00 0.71 0.71 99 1011.3
20260507184227 12 116 6.4 6.4 0.00 0.71 0.71 99 1011.4
20260507183724 12 123 3.2 17.7 0.00 0.71 0.71 99 1011.0
20260507183220 12 77 6.4 16.1 0.00 0.71 0.71 99 1011.1
20260507182717 12 136 16.1 19.3 0.00 0.71 0.71 99 1010.9
20260507182207 12 91 6.4 30.6 0.00 0.71 0.71 99 1011.1
20260507181704 12 120 6.4 17.7 0.00 0.71 0.71 99 1011.1
20260507181201 12 115 6.4 12.9 0.00 0.71 0.71 99 1011.4
20260507180657 12 149 6.4 8.0 0.00 0.71 0.71 99 1011.3
20260507180154 12 104 4.8 8.0 0.00 0.71 0.71 99 1011.4
20260507175650 12 137 8.0 27.4 0.00 0.71 0.71 99 1011.3
20260507175147 12 111 9.7 19.3 0.00 0.71 0.71 99 1011.3
20260507174644 12 104 8.0 17.7 0.00 0.71 0.71 99 1011.2
20260507174142 12 71 6.4 14.5 0.00 0.71 0.71 99 1011.4
20260507173639 12 139 6.4 17.7 0.05 0.71 0.71 99 1011.0
20260507173136 12 145 8.0 11.3 0.18 0.71 0.71 99 1011.2
20260507172632 11 132 6.4 17.7 0.18 0.71 0.71 99 1011.6
20260507172130 11 128 6.4 20.9 0.05 0.69 0.69 99 1011.7
20260507171630 11 109 9.7 17.7 0.00 0.69 0.69 99 1012.0
20260507171127 11 98 4.8 14.5 0.00 0.69 0.69 99 1012.0
20260507170624 11 79 4.8 12.9 0.13 0.69 0.69 99 1011.6
20260507170121 11 70 6.4 22.5 0.13 0.69 0.69 99 1011.8
20260507165617 11 133 6.4 27.4 0.13 0.66 0.66 99 1012.1
20260507165113 12 84 3.2 11.3 0.13 0.66 0.66 99 1011.7
20260507164609 12 138 6.4 17.7 0.00 0.64 0.64 99 1011.5
20260507164106 12 144 1.6 6.4 0.00 0.64 0.64 99 1011.5
20260507163603 12 123 3.2 6.4 0.00 0.64 0.64 99 1011.3
20260507163101 12 116 4.8 11.3 0.05 0.64 0.64 99 1011.5
20260507162556 12 99 4.8 11.3 0.05 0.64 0.64 99 1011.1
20260507162054 12 75 11.3 16.1 0.05 0.64 0.64 99 1011.2
20260507161549 12 86 6.4 8.0 0.30 0.64 0.64 99 1011.3
20260507161046 12 103 4.8 11.3 0.23 0.61 0.61 99 1011.5
20260507160542 12 122 4.8 9.7 0.13 0.58 0.58 99 1012.0
20260507160039 12 109 3.2 9.7 0.48 0.56 0.56 99 1012.3
20260507155534 12 17 3.2 9.7 0.43 0.56 0.56 99 1012.3
20260507155032 12 87 4.8 8.0 0.00 0.48 0.48 99 1012.4
20260507154529 12 112 0.0 6.4 0.00 0.48 0.48 99 1012.2
20260507154026 12 146 1.6 6.4 0.00 0.48 0.48 99 1011.7
20260507153523 12 113 3.2 4.8 0.00 0.48 0.48 99 1011.7
20260507153019 12 91 4.8 16.1 0.00 0.48 0.48 99 1011.7
20260507152514 12 113 6.4 19.3 0.05 0.48 0.48 99 1011.6
20260507152011 12 82 3.2 9.7 0.00 0.48 0.48 99 1011.6
20260507151507 12 112 6.4 6.4 0.18 0.48 0.48 99 1011.9
20260507151005 12 122 3.2 11.3 0.43 0.48 0.48 99 1011.8
20260507150501 12 103 6.4 8.0 0.30 0.46 0.46 99 1011.4
20260507145957 12 121 4.8 14.5 0.05 0.41 0.41 99 1011.3
20260507145453 12 118 11.3 20.9 0.00 0.41 0.41 99 1011.5
20260507144950 12 97 8.0 17.7 0.00 0.41 0.41 99 1011.6
20260507144447 12 91 4.8 9.7 0.00 0.41 0.41 99 1011.9
20260507143944 12 103 4.8 12.9 0.05 0.41 0.41 99 1011.8
20260507143442 12 114 4.8 17.7 0.05 0.41 0.41 99 1011.8
20260507142938 12 89 3.2 11.3 0.00 0.38 0.38 99 1011.7
20260507142434 12 124 6.4 11.3 0.00 0.38 0.38 99 1011.4
20260507141932 12 113 4.8 8.0 0.00 0.38 0.38 99 1010.6
20260507141427 12 107 6.4 14.5 0.00 0.38 0.38 99 1010.6
20260507140924 12 109 6.4 9.7 0.00 0.38 0.38 99 1010.9
20260507140421 12 114 4.8 11.3 0.00 0.38 0.38 99 1011.2
20260507135919 12 125 4.8 11.3 0.00 0.38 0.38 99 1011.0
20260507135415 12 72 4.8 12.9 0.00 0.38 0.38 99 1011.4
20260507134913 12 123 3.2 9.7 0.13 0.38 0.38 99 1011.5
20260507134409 12 30 6.4 11.3 0.30 0.38 0.38 99 1012.0
20260507133905 12 123 3.2 9.7 0.23 0.38 0.38 99 1011.9
20260507133400 12 78 4.8 9.7 0.05 0.33 0.33 99 1012.1
20260507132854 13 122 4.8 8.0 0.00 0.33 0.33 99 1011.7
20260507132350 13 105 6.4 14.5 0.00 0.33 0.33 99 1011.2
20260507131846 13 86 14.5 17.7 0.00 0.33 0.33 99 1011.2
20260507131343 13 125 6.4 11.3 0.00 0.33 0.33 99 1011.2
20260507130840 13 65 9.7 17.7 0.00 0.33 0.33 99 1011.2
20260507130337 13 79 8.0 12.9 0.00 0.33 0.33 99 1010.7
20260507125831 14 52 8.0 16.1 0.00 0.33 0.33 99 1010.8
20260507125328 16 70 12.9 24.1 0.00 0.33 0.33 99 1010.8
20260507124825 18 77 0.0 3.2 0.00 0.33 0.33 99 1011.0
20260507124321 18 125 0.0 3.2 0.00 0.33 0.33 99 1011.0
20260507123820 18 183 0.0 3.2 0.00 0.33 0.33 99 1010.8
20260507123317 18 170 0.0 3.2 0.00 0.33 0.33 99 1010.9
20260507122813 18 105 0.0 3.2 0.00 0.33 0.33 99 1010.8
20260507122308 18 62 0.0 4.8 0.00 0.33 0.33 99 1010.7
20260507121805 18 70 0.0 3.2 0.00 0.33 0.33 99 1010.4
20260507121301 18 178 0.0 4.8 0.00 0.33 0.33 99 1010.5
20260507120757 18 203 0.0 3.2 0.00 0.33 0.33 99 1010.8
20260507120253 18 234 0.0 1.6 0.00 0.33 0.33 99 1010.7
20260507115750 18 17 0.0 3.2 0.00 0.33 0.33 99 1010.9
20260507115245 18 188 0.0 4.8 0.00 0.33 0.33 99 1010.5
20260507114741 18 207 0.0 3.2 0.00 0.33 0.33 99 1010.6
20260507114239 18 186 1.6 4.8 0.00 0.33 0.33 99 1010.8
20260507113736 18 217 0.0 4.8 0.00 0.33 0.33 99 1011.3
20260507113233 18 235 3.2 4.8 0.00 0.33 0.33 99 1011.1
20260507112731 18 179 0.0 3.2 0.00 0.33 0.33 99 1011.0
20260507112227 18 3 0.0 1.6 0.00 0.33 0.33 99 1011.1
20260507111725 18 187 1.6 4.8 0.05 0.33 0.33 99 1010.6
20260507111222 18 243 0.0 3.2 0.05 0.33 0.33 99 1010.7
20260507110717 18 176 0.0 3.2 0.00 0.33 0.33 99 1010.6
20260507110214 18 179 3.2 4.8 0.00 0.33 0.33 99 1010.6
20260507105711 18 17 0.0 1.6 0.00 0.33 0.33 99 1010.7
20260507105207 18 71 0.0 3.2 0.00 0.33 0.33 99 1010.3
20260507104704 18 159 1.6 3.2 0.18 0.33 0.33 99 1010.3
20260507104201 18 220 0.0 3.2 0.23 0.30 0.30 99 1010.4
20260507103657 18 99 0.0 4.8 0.23 0.28 0.28 99 1010.0
20260507103154 18 222 3.2 6.4 0.23 0.28 0.28 99 1010.4
20260507102650 18 197 1.6 4.8 0.13 0.25 0.25 99 1010.7
20260507102146 18 170 0.0 4.8 0.00 0.23 0.23 99 1010.7
20260507101642 18 182 0.0 3.2 0.00 0.23 0.23 99 1010.5
20260507101138 18 242 1.6 4.8 0.05 0.23 0.23 99 1010.6
20260507100636 18 166 0.0 4.8 0.05 0.23 0.23 99 1010.5
20260507100134 18 165 1.6 6.4 0.00 0.23 0.23 99 1010.4
20260507095632 18 225 0.0 4.8 0.00 0.23 0.23 99 1010.7
20260507095128 18 161 0.0 4.8 0.00 0.23 0.23 99 1011.0
20260507094624 18 225 0.0 4.8 0.00 0.23 0.23 99 1010.8
20260507094121 18 182 0.0 3.2 0.00 0.23 0.23 99 1010.7
20260507093618 18 186 0.0 4.8 0.00 0.23 0.23 99 1010.6
20260507093117 18 107 0.0 3.2 0.00 0.23 0.23 99 1010.4
20260507092613 18 233 0.0 3.2 0.05 0.23 0.23 99 1010.7
20260507092110 18 187 0.0 3.2 0.05 0.23 0.23 99 1010.4
20260507091607 18 117 0.0 3.2 0.00 0.20 0.20 99 1010.5
20260507091103 18 203 0.0 4.8 0.00 0.20 0.20 99 1010.6
20260507090559 18 272 3.2 4.8 0.05 0.20 0.20 99 1010.4
20260507090056 18 234 3.2 4.8 0.05 0.20 0.20 99 1010.5
20260507085553 18 178 1.6 4.8 0.13 0.20 0.20 99 1010.5
20260507085049 18 221 1.6 4.8 0.13 0.20 0.20 99 1010.7
20260507084545 18 221 0.0 3.2 0.00 0.18 0.18 99 1010.6
20260507084037 18 271 0.0 1.6 0.05 0.18 0.18 99 1010.3
20260507083533 18 163 0.0 4.8 0.13 0.18 0.18 99 1010.4
20260507083031 18 79 0.0 3.2 0.05 0.18 0.18 99 1010.2
20260507082527 18 338 0.0 8.0 0.00 0.15 0.15 99 1010.2
20260507082023 18 191 0.0 6.4 0.00 0.15 0.15 99 1010.4
20260507081520 18 245 4.8 6.4 0.00 0.15 0.15 99 1010.1
20260507081017 18 351 3.2 4.8 0.00 0.15 0.15 99 1009.9
20260507080512 18 200 0.0 9.7 0.00 0.15 0.15 99 1010.0
20260507080009 18 157 0.0 4.8 0.00 0.15 0.15 99 1010.1
20260507075504 18 233 4.8 8.0 0.00 0.15 0.15 99 1009.9
20260507075001 18 221 0.0 8.0 0.00 0.15 0.15 99 1009.9
20260507074458 18 240 3.2 3.2 0.00 0.15 0.15 99 1010.0
20260507073956 18 316 3.2 8.0 0.00 0.15 0.15 99 1010.1
20260507073452 18 291 1.6 6.4 0.00 0.15 0.15 99 1010.3
20260507072948 18 216 0.0 9.7 0.00 0.15 0.15 99 1010.4
20260507072446 18 234 1.6 6.4 0.00 0.15 0.15 99 1010.4
20260507071943 18 250 3.2 14.5 0.00 0.15 0.15 99 1010.4
20260507071440 18 240 4.8 6.4 0.00 0.15 0.15 99 1010.2
20260507070937 18 211 6.4 9.7 0.00 0.15 0.15 99 1010.4
20260507070434 18 249 3.2 4.8 0.00 0.15 0.15 99 1010.5
20260507065931 18 225 3.2 8.0 0.00 0.15 0.15 99 1010.6
20260507065427 18 192 3.2 6.4 0.00 0.15 0.15 99 1010.4
20260507064919 18 203 6.4 8.0 0.00 0.15 0.15 99 1010.5
20260507064417 18 292 4.8 4.8 0.00 0.15 0.15 99 1010.9
20260507063915 18 234 0.0 4.8 0.00 0.15 0.15 99 1011.0
20260507063412 18 264 4.8 4.8 0.00 0.15 0.15 99 1011.2
20260507062909 18 251 4.8 9.7 0.00 0.15 0.15 99 1011.1
20260507062405 18 227 1.6 8.0 0.00 0.15 0.15 99 1011.0
20260507061902 18 216 3.2 8.0 0.00 0.15 0.15 99 1011.1
20260507061400 18 243 6.4 9.7 0.00 0.15 0.15 99 1011.2
20260507060853 18 238 3.2 6.4 0.00 0.15 0.15 99 1011.2
20260507060349 18 228 3.2 12.9 0.00 0.15 0.15 99 1011.3
20260507055847 18 272 0.0 4.8 0.00 0.15 0.15 99 1011.2
20260507055341 18 172 0.0 4.8 0.00 0.15 0.15 99 1011.4
20260507054839 18 231 0.0 3.2 0.00 0.15 0.15 99 1011.9
20260507054335 18 257 4.8 6.4 0.00 0.15 0.15 99 1011.4
20260507053832 18 224 3.2 9.7 0.00 0.15 0.15 99 1011.7
20260507053330 18 267 3.2 6.4 0.00 0.15 0.15 99 1011.6
20260507052828 18 188 3.2 11.3 0.00 0.15 0.15 99 1011.3
20260507052325 19 237 3.2 4.8 0.00 0.15 0.15 99 1011.4
20260507051822 19 234 0.0 4.8 0.00 0.15 0.15 99 1011.7
20260507051320 19 236 3.2 4.8 0.00 0.15 0.15 99 1011.4
20260507050817 19 229 1.6 4.8 0.00 0.15 0.15 99 1011.5
20260507050313 19 54 0.0 4.8 0.05 0.15 0.15 99 1011.3
20260507045810 19 283 3.2 3.2 0.05 0.15 0.15 99 1011.1
20260507045307 19 255 0.0 4.8 0.18 0.15 0.15 99 1011.0
20260507044803 19 195 0.0 4.8 0.23 0.15 0.15 99 1011.2
20260507044300 19 158 3.2 6.4 0.13 0.13 0.13 99 1011.7
20260507043756 19 257 4.8 4.8 0.30 0.10 0.10 99 1012.2
20260507043253 19 233 1.6 4.8 0.36 0.10 0.10 99 1012.5
20260507042749 19 218 6.4 12.9 0.18 0.05 0.05 99 1012.5
20260507042244 19 240 4.8 6.4 0.13 0.05 0.05 99 1012.7
20260507041742 19 200 4.8 9.7 0.05 0.03 0.03 99 1012.7
20260507041238 18 213 3.2 4.8 0.13 0.03 0.03 99 1012.7
20260507040736 19 229 3.2 6.4 0.13 0.03 0.03 99 1012.5
20260507040231 18 225 3.2 6.4 0.05 0.00 0.00 99 1012.4
20260507035727 18 211 0.0 3.2 0.05 0.18 0.18 99 1013.0
20260507035222 19 243 0.0 4.8 0.05 0.18 0.18 98 1012.5
20260507034715 19 232 0.0 3.2 0.05 0.18 0.18 98 1012.3
20260507034212 19 221 0.0 3.2 0.00 0.18 0.18 97 1012.1
20260507033710 19 214 0.0 6.4 0.05 0.18 0.18 97 1012.1
20260507033207 19 209 3.2 4.8 0.05 0.18 0.18 96 1012.1
20260507032704 20 250 3.2 4.8 0.00 0.15 0.15 95 1011.9
20260507032154 20 252 0.0 4.8 0.00 0.15 0.15 94 1012.0
20260507031651 20 310 0.0 14.5 0.00 0.15 0.15 94 1012.0
20260507031148 20 264 3.2 4.8 0.00 0.15 0.15 93 1011.8
20260507030645 20 218 3.2 6.4 0.00 0.15 0.15 93 1012.2
20260507030143 20 250 3.2 4.8 0.00 0.15 0.15 91 1012.0
20260507025640 20 243 0.0 3.2 0.00 0.15 0.15 90 1011.6
20260507025137 20 33 1.6 3.2 0.00 0.15 0.15 90 1011.9
20260507024635 20 320 4.8 9.7 0.00 0.15 0.15 89 1011.8
20260507024132 20 3 0.0 8.0 0.00 0.15 0.15 89 1011.7
20260507023627 20 247 4.8 11.3 0.00 0.15 0.15 90 1011.6
20260507023125 20 246 4.8 6.4 0.00 0.15 0.15 90 1011.7
20260507022621 20 214 4.8 6.4 0.00 0.15 0.15 89 1011.7
20260507022116 20 211 1.6 4.8 0.00 0.15 0.15 90 1011.3
20260507021614 20 220 1.6 4.8 0.00 0.15 0.15 90 1011.3
20260507021109 20 265 0.0 3.2 0.00 0.15 0.15 90 1011.3
20260507020608 20 239 3.2 11.3 0.00 0.15 0.15 91 1011.1
20260507020103 20 220 4.8 4.8 0.00 0.15 0.15 91 1011.6
20260507015602 20 26 0.0 3.2 0.00 0.15 0.15 91 1011.2
20260507015059 20 207 1.6 4.8 0.00 0.15 0.15 91 1011.2
20260507014555 20 211 3.2 6.4 0.00 0.15 0.15 90 1011.7
20260507014045 20 221 3.2 3.2 0.00 0.15 0.15 90 1012.0
20260507013542 20 237 3.2 6.4 0.00 0.15 0.15 90 1012.1
20260507013040 20 274 0.0 3.2 0.00 0.15 0.15 90 1012.1
20260507012537 20 258 0.0 3.2 0.00 0.15 0.15 90 1012.3
20260507012033 20 243 0.0 4.8 0.00 0.15 0.15 89 1012.1
20260507011530 20 94 0.0 4.8 0.00 0.15 0.15 89 1012.1
20260507011025 20 236 3.2 4.8 0.00 0.15 0.15 89 1011.9